Regional Weather Roundup
Issued by NWS Little Rock, AR

Home | Current Version | Previous Version | Graphics & Text | Print | Product List | Glossary On
Versions: 1 2 3 4 5 6 7 8 9 10 11 12 13 14 15 16 17 18 19 20 21 22 23 24 25 26 27 28 29 30 31 32 33 34 35 36 37 38 39 40 41 42 43 44 45 46 47 48 49 50
000
ASUS44 KLZK 310305
RWRLZK

WEATHER ROUNDUP FOR ARKANSAS
NATIONAL WEATHER SERVICE LITTLE ROCK AR
900 PM CST FRI JAN 30 2015

NOTE: "FAIR" INDICATES FEW OR NO CLOUDS BELOW 12,000 FEET WITH NO
SIGNIFICANT WEATHER AND/OR OBSTRUCTIONS TO VISIBILITY.

ARZ001-003-010-029-310400-
NORTHWEST ARKANSAS

CITY           SKY/WX    TMP DP  RH WIND       PRES   REMARKS
FAYETTEVILLE   MOCLDY    36  28  73 S5        30.38F
FORT SMITH     CLOUDY    45  26  47 E6        30.40F
HARRISON       MOCLDY    37  23  56 SE5       30.39F
BENTONVILLE    CLOUDY    43  21  42 SE5       30.38F
ROGERS         CLOUDY    41  25  53 SE6       30.38F
SILOAM SPGS    MOCLDY    41  19  42 E5        30.39S
HIGHFILL       CLOUDY    42  22  44 SE3       30.37F
SPRINGDALE     PTCLDY    41  23  48 CALM      30.39F
$$

ARZ004-005-016-310400-
NORTH CENTRAL ARKANSAS

CITY           SKY/WX    TMP DP  RH WIND       PRES   REMARKS
BATESVILLE     MOCLDY    37  25  60 CALM      30.45R
FLIPPIN        PTCLDY    34  19  55 CALM      30.41S
MTN HOME       MOCLDY    38  18  44 S3        30.40F
$$

ARZ040-041-310400-
WEST CENTRAL ARKANSAS

CITY           SKY/WX    TMP DP  RH WIND       PRES   REMARKS
MENA           MOCLDY    41  32  70 CALM      30.39F
MOUNT IDA      CLOUDY    39  29  67 CALM      30.39S
$$

ARZ009-017-025-026-028-310400-
NORTHEAST ARKANSAS

CITY           SKY/WX    TMP DP  RH WIND       PRES   REMARKS
CORNING        FAIR      32  28  86 E5        30.45F WCI  27
JONESBORO      CLEAR     31  27  85 CALM      30.44F
NEWPORT        LGT RAIN  37  30  76 E6        30.46S
WALNUT RIDGE   CLEAR     34  27  75 CALM      30.45S
BLYTHEVILLE    CLEAR     30  26  85 NE6       30.46S WCI  24
$$

ARZ022-023-033-042-044-310400-
CENTRAL ARKANSAS

CITY           SKY/WX    TMP DP  RH WIND       PRES   REMARKS
LITTLE ROCK    PTCLDY    39  25  57 NE3       30.45S
N LITTLE ROCK  PTCLDY    38  27  64 E6        30.45S
JACKSONVILLE   PTCLDY    32  25  73 E2        30.44S
SEARCY         MOCLDY    36  28  73 NE3       30.46S
HOT SPRINGS    MOCLDY    44  27  51 SE5       30.42F
RUSSELLVILLE   MOCLDY    38  31  76 CALM      30.42S
CLINTON        FAIR      34  28  80 CALM      30.45S
$$

ARZ036-310400-
EAST ARKANSAS

CITY           SKY/WX    TMP DP  RH WIND       PRES   REMARKS
WEST MEMPHIS   CLEAR     34  28  79 NE5       30.43F WCI  30
$$

ARZ050-053-066-070-073-310400-
SOUTHWEST ARKANSAS

CITY           SKY/WX    TMP DP  RH WIND       PRES   REMARKS
ARKADELPHIA    FAIR      38  35  89 CALM      30.43F
CAMDEN         CLEAR     34  28  80 MISG      30.44R
TEXARKANA      CLOUDY    43  33  68 CALM      30.40F
EL DORADO      PTCLDY    35  30  82 NE5       30.41F WCI  31
DE QUEEN       PTCLDY    42  33  70 CALM      30.39F
$$

ARZ056-057-069-310400-
SOUTHEAST ARKANSAS

CITY           SKY/WX    TMP DP  RH WIND       PRES   REMARKS
PINE BLUFF     CLEAR     36  27  69 N5        30.44S
STUTTGART      CLEAR     37  27  65 NE8       30.45R
MONTICELLO     PTCLDY    38  30  73 CALM      30.43R

$$




USA.gov is the U.S. government's official web portal to all federal, state and local government web resources and services.